Date String (YYYY-MM-DD hh:mm:ss) UTC,Instrument flags,absolute air pressure of the measurement (hPa),sample flow rate (lpm),inlet stack bypass flow (lpm),air temperature of the measurement (°C),ambient temperature measured by the external sensor (°C),aerosol sample conditioner tube jacket temperature (°C),OPC LED temperature (°C),internal box temperature (°C),relative humidity of the measurement (%),span deviation,mass concentration of particles derived from Lorenz-Mie calculation of OPC scattering (μg/m³),mass concentration of particles derived from Lorenz-Mie calculation of OPC scattering (μg/m³),mass concentration of particles derived from Lorenz-Mie calculation of OPC scattering (μg/m³)
DateTimeUTC,F1_M11,P_M11,Q1_M11,Q2_M11,T1_M11,T2_M11,T3_M11,T4_M11,T5_M11,U1_M11,ZSPAN_M11,X2_M11,X0_M11,X1_M11
2024-05-13 21:00:00,SystemResetWarning,0826.4,4.99,000.00,024.0,023.1,000.0,032.1,025.9,023.3,0000.0,0004.43,0008.25,0003.96
2024-05-13 21:01:00,SystemResetWarning,0826.5,4.99,000.00,024.1,023.4,000.0,032.1,026.0,023.1,0000.0,0004.47,0008.01,0003.98
2024-05-13 21:02:00,SystemResetWarning,0826.6,4.99,000.00,024.2,023.6,000.0,032.1,026.2,023.1,0000.0,0004.52,0008.14,0004.01
2024-05-13 21:03:00,SystemResetWarning,0826.6,5.01,000.00,024.3,023.8,000.0,032.2,026.3,023.3,0000.0,0004.54,0008.34,0004.01
2024-05-13 21:04:00,SystemResetWarning,0826.6,5.01,000.00,024.4,023.9,000.0,032.2,026.3,022.7,0000.0,0004.57,0009.03,0004.00
2024-05-13 21:05:00,SystemResetWarning,0826.7,5.01,000.00,024.5,024.1,000.0,032.3,026.4,022.8,0000.0,0004.59,0009.12,0003.99
2024-05-13 21:06:00,SystemResetWarning,0826.7,4.98,000.00,024.4,023.0,000.0,032.4,025.8,023.3,0000.0,0004.59,0009.54,0003.98
2024-05-13 21:07:00,SystemResetWarning,0826.6,5.01,000.00,024.0,021.1,000.0,032.4,024.8,023.5,0000.0,0004.63,0009.56,0003.98
2024-05-13 21:08:00,SystemResetWarning,0826.7,5.02,000.00,023.8,021.1,000.0,032.4,024.7,023.6,0000.0,0004.64,0009.48,0003.99
2024-05-13 21:09:00,SystemResetWarning,0826.8,4.99,000.00,023.7,021.5,000.0,032.3,024.9,024.0,0000.0,0004.64,0009.30,0003.99
2024-05-13 21:10:00,SystemResetWarning,0826.8,5.00,000.00,023.8,021.9,000.0,032.2,025.1,023.8,0000.0,0004.66,0009.40,0003.99
2024-05-13 21:11:00,SystemResetWarning,0826.8,5.00,000.00,023.8,022.3,000.0,032.1,025.4,023.8,0000.0,0004.64,0009.84,0003.96
2024-05-13 21:12:00,SystemResetWarning,0826.8,5.01,000.00,023.9,022.7,000.0,032.1,025.6,023.7,0000.0,0004.60,0010.05,0003.94
2024-05-13 21:13:00,SystemResetWarning,0826.8,4.99,000.00,024.0,023.0,000.0,032.1,025.7,023.5,0000.0,0004.52,0009.89,0003.89
2024-05-13 21:14:00,SystemResetWarning,0826.7,4.99,000.00,024.0,023.2,000.0,032.1,025.9,023.2,0000.0,0004.46,0009.76,0003.83
2024-05-13 21:15:00,SystemResetWarning,0826.8,5.00,000.00,024.1,023.4,000.0,032.1,026.0,023.4,0000.0,0004.37,0009.15,0003.75
2024-05-13 21:16:00,SystemResetWarning,0826.7,5.00,000.00,024.2,023.6,000.0,032.2,026.1,023.7,0000.0,0004.31,0009.25,0003.70
2024-05-13 21:17:00,SystemResetWarning,0826.7,5.00,000.00,024.3,023.8,000.0,032.2,026.3,023.6,0000.0,0004.24,0008.86,0003.65
2024-05-13 21:18:00,SystemResetWarning,0826.8,5.00,000.00,024.4,023.9,000.0,032.3,026.3,023.5,0000.0,0004.14,0008.97,0003.56
2024-05-13 21:19:00,SystemResetWarning,0826.8,5.01,000.00,024.4,024.0,000.0,032.3,026.3,023.7,0000.0,0003.98,0009.02,0003.45
2024-05-13 21:20:00,SystemResetWarning,0826.6,4.98,000.00,024.3,022.5,000.0,032.4,025.5,024.2,0000.0,0003.88,0009.12,0003.37
2024-05-13 21:21:00,SystemResetWarning,0826.6,5.02,000.00,024.0,021.6,000.0,032.4,025.0,023.6,0000.0,0003.86,0009.62,0003.36
2024-05-13 21:22:00,SystemResetWarning,0826.6,5.00,000.00,023.9,021.9,000.0,032.4,025.1,024.2,0000.0,0003.84,0009.49,0003.35
2024-05-13 21:23:00,SystemResetWarning,0826.6,4.99,000.00,023.9,022.3,000.0,032.3,025.3,023.6,0000.0,0003.82,0008.77,0003.33
2024-05-13 21:24:00,SystemResetWarning,0826.6,5.00,000.00,024.0,022.6,000.0,032.2,025.6,023.8,0000.0,0003.80,0008.76,0003.32
2024-05-13 21:25:00,SystemResetWarning,0826.6,5.00,000.00,024.1,022.9,000.0,032.2,025.8,024.6,0000.0,0003.79,0008.73,0003.33
2024-05-13 21:26:00,SystemResetWarning,0826.6,5.00,000.00,024.2,023.2,000.0,032.2,026.0,024.4,0000.0,0003.79,0008.55,0003.36
2024-05-13 21:27:00,SystemResetWarning,0826.6,5.01,000.00,024.2,023.4,000.0,032.2,026.1,024.5,0000.0,0003.82,0008.36,0003.39
2024-05-13 21:28:00,SystemResetWarning,0826.6,4.99,000.00,024.3,023.7,000.0,032.3,026.2,025.3,0000.0,0003.82,0008.23,0003.40
2024-05-13 21:29:00,SystemResetWarning,0826.6,4.99,000.00,024.4,023.8,000.0,032.3,026.3,025.6,0000.0,0003.84,0007.85,0003.45
2024-05-13 21:30:00,SystemResetWarning,0826.6,5.00,000.00,024.5,024.0,000.0,032.3,026.4,027.0,0000.0,0003.91,0007.58,0003.51
2024-05-13 21:31:00,SystemResetWarning,0826.6,5.00,000.00,024.4,022.9,000.0,032.4,025.8,027.3,0000.0,0003.94,0007.30,0003.54
2024-05-13 21:32:00,SystemResetWarning,0826.6,5.00,000.00,024.0,021.0,000.0,032.5,024.7,026.8,0000.0,0003.89,0006.24,0003.51
2024-05-13 21:33:00,SystemResetWarning,0826.6,5.02,000.00,023.7,020.7,000.0,032.5,024.5,025.8,0000.0,0003.85,0006.30,0003.48
2024-05-13 21:34:00,SystemResetWarning,0826.6,5.00,000.00,023.6,021.2,000.0,032.3,024.7,025.4,0000.0,0003.83,0006.53,0003.46
2024-05-13 21:35:00,SystemResetWarning,0826.6,5.00,000.00,023.7,021.6,000.0,032.2,025.0,025.6,0000.0,0003.83,0006.57,0003.45
2024-05-13 21:36:00,SystemResetWarning,0826.5,5.00,000.00,023.7,022.0,000.0,032.1,025.2,025.6,0000.0,0003.85,0006.64,0003.45
2024-05-13 21:37:00,SystemResetWarning,0826.4,5.01,000.00,023.8,022.4,000.0,032.1,025.4,025.4,0000.0,0003.86,0006.89,0003.44
2024-05-13 21:38:00,SystemResetWarning,0826.4,5.00,000.00,023.9,022.7,000.0,032.1,025.6,024.8,0000.0,0003.82,0007.40,0003.41
2024-05-13 21:39:00,SystemResetWarning,0826.4,4.99,000.00,023.9,023.0,000.0,032.1,025.7,023.0,0000.0,0003.82,0007.42,0003.39
2024-05-13 21:40:00,SystemResetWarning,0826.4,4.99,000.00,024.0,023.2,000.0,032.1,025.9,023.3,0000.0,0003.79,0007.45,0003.36
2024-05-13 21:41:00,SystemResetWarning,0826.4,5.01,000.00,024.1,023.4,000.0,032.1,026.0,026.4,0000.0,0003.74,0007.58,0003.32
2024-05-13 21:42:00,SystemResetWarning,0826.4,5.01,000.00,024.2,023.6,000.0,032.1,026.1,028.0,0000.0,0003.73,0008.26,0003.28
2024-05-13 21:43:00,SystemResetWarning,0826.3,5.00,000.00,024.3,023.8,000.0,032.2,026.2,027.7,0000.0,0003.73,0008.72,0003.25
2024-05-13 21:44:00,SystemResetWarning,0826.4,4.99,000.00,024.4,023.9,000.0,032.2,026.3,026.8,0000.0,0003.70,0009.42,0003.23
2024-05-13 21:45:00,SystemResetWarning,0826.4,4.99,000.00,024.4,024.1,000.0,032.3,026.4,026.9,0000.0,0003.72,0009.64,0003.21
2024-05-13 21:46:00,SystemResetWarning,0826.4,4.99,000.00,024.5,024.2,000.0,032.3,026.5,026.4,0000.0,0003.71,0009.67,0003.19
2024-05-13 21:47:00,SystemResetWarning,0826.4,5.00,000.00,024.4,023.1,000.0,032.4,025.8,026.9,0000.0,0003.68,0009.62,0003.16
2024-05-13 21:48:00,SystemResetWarning,0826.3,5.01,000.00,024.1,021.8,000.0,032.5,025.1,026.6,0000.0,0003.70,0009.60,0003.16
2024-05-13 21:49:00,SystemResetWarning,0826.3,5.02,000.00,024.0,022.0,000.0,032.5,025.2,027.7,0000.0,0003.75,0009.41,0003.16
2024-05-13 21:50:00,SystemResetWarning,0826.3,4.99,000.00,024.0,022.3,000.0,032.4,025.4,027.4,0000.0,0003.80,0009.69,0003.17
2024-05-13 21:51:00,SystemResetWarning,0826.2,4.99,000.00,024.1,022.6,000.0,032.3,025.6,025.1,0000.0,0003.87,0010.39,0003.17
2024-05-13 21:52:00,SystemResetWarning,0826.2,5.01,000.00,024.1,023.0,000.0,032.3,025.8,026.5,0000.0,0003.90,0010.24,0003.20
2024-05-13 21:53:00,SystemResetWarning,0826.2,5.00,000.00,024.2,023.2,000.0,032.3,026.0,029.1,0000.0,0003.94,0009.63,0003.23
2024-05-13 21:54:00,SystemResetWarning,0826.2,4.99,000.00,024.3,023.5,000.0,032.3,026.1,026.1,0000.0,0003.95,0009.76,0003.24
2024-05-13 21:55:00,SystemResetWarning,0826.2,5.00,000.00,024.3,023.7,000.0,032.3,026.2,025.3,0000.0,0003.97,0009.19,0003.25
2024-05-13 21:56:00,SystemResetWarning,0826.2,5.00,000.00,024.4,023.9,000.0,032.4,026.4,025.8,0000.0,0003.99,0009.01,0003.26
2024-05-13 21:57:00,SystemResetWarning,0826.2,5.00,000.00,024.5,024.0,000.0,032.4,026.4,023.9,0000.0,0004.01,0009.04,0003.29
2024-05-13 21:58:00,SystemResetWarning,0826.2,4.99,000.00,024.6,024.1,000.0,032.5,026.5,024.3,0000.0,0004.06,0009.17,0003.32
2024-05-13 21:59:00,SystemResetWarning,0826.2,4.99,000.00,024.4,022.5,000.0,032.6,025.6,024.3,0000.0,0004.05,0009.14,0003.34
